[[{"header":{"parameterUnit":"m.s-1","parameterCategory":1,"la1":30.2991,"la2":30.254,"lo1":-89.0895,"lo2":-89.0444,"dy":0.0017,"dx":0.0017,"nx":28,"ny":28,"refTime":"2025-12-12T03:00:00:Z","depth":0,"parameterNumber":2,"parameterNumberName":"U-component_of_WINDS"},"data":[0,0,0,0,0,0,0,0,0,0,0,0,0,0,0,0,0,0,0,0,0,0,0,0,0,0,0,0,0,0,0,0,0,0,0,0,0,0,0,0,0,0,0,0,0,0,0,0,0,0,0,0,0,0,0,0,0,0,-1.4203,-1.4203,0,-1.4271,-1.4272,-1.4273,-1.4216,-1.4213,-1.4211,-1.4209,-1.4283,-1.4288,-1.4292,0,0,0,0,0,0,0,0,0,0,0,0,0,-1.4027,-1.403,-1.4203,-1.4203,-1.4204,-1.4271,-1.4272,-1.4273,-1.4216,-1.4213,-1.421,-1.4208,-1.4282,-1.4287,-1.4292,0,0,0,0,0,0,0,0,0,0,0,0,0,-1.41,-1.4032,-1.4202,-1.4184,-1.4183,-1.4271,-1.4272,-1.4273,-1.4217,-1.4213,-1.421,-1.4206,-1.428,-1.4287,-1.4293,-1.4404,0,0,-1.4312,-1.4315,0,0,0,0,0,0,0,0,-1.4096,-1.4107,-1.4186,-1.4185,-1.4184,-1.4231,-1.4237,-1.4317,-1.4218,-1.4204,-1.4209,-1.4204,-1.4269,-1.4276,-1.4297,-1.4407,-1.441,-1.4313,-1.4317,-1.4319,-1.4321,0,0,0,0,0,0,0,-1.4091,-1.4104,-1.423,-1.4187,-1.4186,-1.4174,-1.418,-1.4252,-1.4256,-1.4205,-1.4201,-1.421,-1.4268,-1.4291,-1.4298,-1.4412,-1.4313,-1.4318,-1.4322,-1.4325,-1.4616,-1.462,0,0,0,0,0,0,-1.4087,-1.41,-1.4228,-1.4232,-1.413,-1.418,-1.4187,-1.422,-1.4255,-1.4257,-1.4213,-1.4207,-1.4282,-1.4291,-1.4301,-1.4433,-1.4319,-1.4325,-1.4329,-1.4612,-1.4617,-1.4621,0,0,0,0,0,0,-1.4084,-1.4099,-1.4225,-1.4165,-1.418,-1.4186,-1.4224,-1.4223,-1.4246,-1.4261,-1.4262,-1.4235,-1.428,-1.4292,-1.4378,-1.4435,-1.4328,-1.4334,-1.4608,-1.4614,-1.4619,-1.4698,0,0,0,0,0,0,-1.4079,-1.4098,-1.414,-1.4166,-1.4183,-1.43,-1.4227,-1.4227,-1.4256,-1.4249,-1.4282,-1.4284,-1.4278,-1.4369,-1.4385,-1.4442,-1.4339,-1.4603,-1.461,-1.4617,-1.4691,-1.4706,-1.472,0,0,0,0,0,-1.4073,-1.416,-1.4142,-1.4158,-1.4235,-1.4303,-1.4313,-1.4303,-1.4261,-1.4303,-1.4313,-1.4283,-1.4426,-1.4378,-1.4395,-1.4455,-1.4599,-1.4608,-1.4617,-1.4684,-1.4703,-1.4719,0,0,0,0,0,0,-1.4142,-1.4163,-1.4143,-1.4242,-1.4271,-1.4294,-1.4347,-1.4323,-1.4366,-1.4358,-1.4344,-1.4352,-1.4443,-1.4458,-1.4404,-1.4564,-1.4506,-1.4519,-1.4552,-1.457,-1.4584,-1.4579,-1.4344,0,0,0,0,0,-1.4169,-1.4221,-1.4238,-1.4323,-1.4338,-1.434,-1.437,-1.4359,-1.4389,-1.4402,-1.4418,-1.445,-1.4502,-1.4536,-1.4585,-1.4692,-1.4699,-1.4742,-1.4756,-1.4768,-1.4779,-1.4837,-1.4857,-1.4651,-1.465,-1.465,0,0,-1.4225,-1.4243,-1.4277,-1.4337,-1.4359,-1.4415,-1.4351,-1.4413,-1.4455,-1.4412,-1.4494,-1.4507,-1.4542,-1.4639,-1.4682,-1.4654,-1.4838,-1.4779,-1.4789,-1.4794,-1.4848,-1.4868,-1.4885,-1.4657,-1.4655,-1.4654,0,0,-1.4355,-1.4374,-1.4446,-1.4469,-1.4501,-1.4502,-1.4519,-1.4546,-1.4552,-1.4633,-1.4602,-1.4652,-1.4742,-1.4768,-1.4793,-1.4933,-1.4907,-1.4949,-1.5025,-1.5081,-1.5097,-1.5112,-1.5162,-1.518,-1.496,-1.4961,-1.4961,0,-1.4421,-1.4502,-1.4487,-1.4551,-1.4579,-1.4541,-1.4615,-1.4638,-1.4686,-1.4706,-1.4673,-1.4784,-1.4805,-1.4908,-1.4942,-1.4963,-1.4984,-1.4946,-1.5096,-1.511,-1.5124,-1.5171,-1.519,-1.4965,-1.4965,-1.4964,-1.4964,0,-1.4582,-1.4639,-1.4694,-1.4739,-1.4773,-1.4842,-1.4839,-1.4875,-1.4861,-1.4866,-1.495,-1.4973,-1.5025,-1.5049,-1.5037,-1.515,-1.5131,-1.5097,-1.5039,-1.5148,-1.5193,-1.5211,-1.4972,-1.4971,-1.4969,-1.4968,0,0,-1.4759,-1.4793,-1.4814,-1.4834,-1.4867,-1.4911,-1.4979,-1.5029,-1.506,-1.5094,-1.5151,-1.5228,-1.5196,-1.5225,-1.5215,-1.5265,-1.5374,-1.5225,-1.5225,-1.5252,-1.5501,-1.5526,-1.5547,-1.5357,-1.536,-1.5363,-1.5498,0,-1.489,-1.5006,-1.4994,-1.5105,-1.5158,-1.5122,-1.5181,-1.5208,-1.5214,-1.5261,-1.5268,-1.5322,-1.5276,-1.5293,-1.5341,-1.5351,-1.5424,-1.5341,-1.5411,-1.5413,-1.5403,-1.557,-1.5598,-1.5724,-1.5515,-1.5518,-1.552,0,-1.506,-1.5098,-1.5214,-1.5238,-1.5259,-1.5313,-1.5357,-1.5402,-1.5432,-1.5433,-1.5464,-1.5446,-1.5515,-1.5454,-1.555,-1.5493,-1.5521,-1.5531,-1.5535,-1.5542,-1.5474,-1.5582,-1.5764,-1.5783,-1.5547,-1.5545,-1.5543,0,-1.5177,-1.5258,-1.5337,-1.5355,-1.5386,-1.5424,-1.5438,-1.5465,-1.5495,-1.5535,-1.5554,-1.5602,-1.5629,-1.5666,-1.5662,-1.5618,-1.5759,-1.5698,-1.5763,-1.5763,-1.5794,-1.5792,-1.5983,-1.5812,-1.5812,-1.5812,-1.5811,0,-1.5326,-1.5398,-1.539,-1.5439,-1.5519,-1.5505,-1.5585,-1.5596,-1.562,-1.5671,-1.5643,-1.5692,-1.5683,-1.5732,-1.5729,-1.5808,-1.5821,-1.5824,-1.5822,-1.5827,-1.5826,-1.5845,-1.5836,-1.5817,-1.5815,-1.5814,-1.5814,0,-1.5471,-1.5469,-1.5553,-1.5574,-1.5581,-1.5639,-1.5658,-1.5704,-1.5707,-1.5772,-1.5787,-1.5792,-1.5849,-1.5847,-1.5912,-1.591,-1.6008,-1.5996,-1.5997,-1.5995,-1.6059,-1.6053,-1.6269,-1.6297,-1.6108,-1.611,-1.6111,0,-1.5566,-1.5621,-1.5647,-1.5678,-1.5695,-1.5746,-1.5777,-1.5765,-1.5798,-1.5837,-1.5879,-1.5932,-1.5974,-1.6066,-1.6077,-1.6126,-1.6116,-1.6188,-1.6123,-1.6125,-1.6117,-1.6114,-1.6119,-1.6201,-1.6203,-1.6205,-1.6206,0,-1.5736,-1.5731,-1.5775,-1.5819,-1.5856,-1.5891,-1.5922,-1.595,-1.5942,-1.5981,-1.6037,-1.6069,-1.6134,-1.6188,-1.6235,-1.6251,-1.6228,-1.6226,-1.6244,-1.6249,-1.6247,-1.6249,-1.6032,-1.6222,-1.622,-1.6219,-1.6218,-1.6217,-1.5859,-1.5905,-1.5931,-1.5981,-1.6003,-1.6033,-1.6077,-1.6085,-1.6131,-1.6182,-1.6173,-1.6236,-1.6265,-1.6326,-1.6346,-1.6396,-1.6371,-1.6396,-1.6403,-1.6409,-1.6416,-1.6239,-1.6405,-1.6404,-1.6404,-1.6404,-1.6403,0,-1.6027,-1.6041,-1.6087,-1.6131,-1.6171,-1.6143,-1.6176,-1.6212,-1.6267,-1.6295,-1.6336,-1.6401,-1.6453,-1.6467,-1.6517,-1.6554,-1.6545,-1.6568,-1.6565,-1.6569,-1.6436,-1.6416,-1.6575,-1.6575,-1.6574,-1.6574,-1.6574,-1.6574,-1.6119,-1.6196,-1.6194,-1.6282,-1.6296,-1.6356,-1.6378,-1.6406,-1.6428,-1.6501,-1.6543,-1.6551,-1.6574,-1.6625,-1.6671,-1.6674,-1.6694,-1.6721,-1.672,-1.6596,-1.6579,-1.6562,-1.6543,-1.6726,-1.6726,-1.6849,-1.685,-1.6851]},{"header":{"parameterUnit":"m.s-1","parameterCategory":1,"la1":30.2991,"la2":30.254,"lo1":-89.0895,"lo2":-89.0444,"dy":0.0017,"dx":0.0017,"nx":28,"ny":28,"refTime":"2025-12-12T03:00:00:Z","depth":0,"parameterNumber":3,"parameterNumberName":"V-component_of_WINDS"},"data":[0,0,0,0,0,0,0,0,0,0,0,0,0,0,0,0,0,0,0,0,0,0,0,0,0,0,0,0,0,0,0,0,0,0,0,0,0,0,0,0,0,0,0,0,0,0,0,0,0,0,0,0,0,0,0,0,0,0,-1.0022,-1.0021,0,-0.9959,-0.9958,-0.9957,-0.9913,-0.9913,-0.9913,-0.9912,-0.9843,-0.9841,-0.984,0,0,0,0,0,0,0,0,0,0,0,0,0,-1.0099,-1.0098,-1.0022,-1.0021,-1.002,-0.9959,-0.9958,-0.9957,-0.9913,-0.9913,-0.9913,-0.9912,-0.9843,-0.9842,-0.984,0,0,0,0,0,0,0,0,0,0,0,0,0,-1.0054,-1.0098,-1.0022,-0.9991,-0.9988,-0.9959,-0.9958,-0.9957,-0.9913,-0.9913,-0.9912,-0.9912,-0.9844,-0.9842,-0.984,-0.9835,0,0,-0.9832,-0.9831,0,0,0,0,0,0,0,0,-1.0057,-1.0051,-0.9996,-0.9993,-0.9989,-0.9943,-0.996,-0.9916,-0.9914,-0.9942,-0.9912,-0.9912,-0.9876,-0.9871,-0.986,-0.9832,-0.9829,-0.9832,-0.9831,-0.983,-0.9829,0,0,0,0,0,0,0,-1.006,-1.0053,-0.9997,-0.9996,-0.9991,-0.9979,-0.9972,-0.9951,-0.9912,-0.9939,-0.9936,-0.9929,-0.9874,-0.9863,-0.9859,-0.9828,-0.9832,-0.983,-0.9829,-0.9828,-0.9789,-0.9789,0,0,0,0,0,0,-1.0068,-1.0056,-0.9999,-0.9995,-1.0023,-0.9978,-0.997,-0.9959,-0.9912,-0.9905,-0.993,-0.9927,-0.9867,-0.9861,-0.9856,-0.9846,-0.983,-0.9828,-0.9826,-0.9789,-0.9789,-0.979,0,0,0,0,0,0,-1.007,-1.0064,-1.0001,-1.0025,-1.0016,-0.9977,-0.9965,-0.9958,-0.9946,-0.9905,-0.9898,-0.9925,-0.9866,-0.9859,-0.984,-0.9843,-0.9827,-0.9825,-0.9788,-0.9789,-0.9789,-0.9827,0,0,0,0,0,0,-1.0073,-1.0065,-1.0064,-1.0025,-1.0015,-0.9988,-0.9965,-0.9957,-0.9943,-0.9939,-0.9899,-0.9892,-0.9866,-0.9844,-0.9838,-0.984,-0.9823,-0.9788,-0.9789,-0.9789,-0.9826,-0.9829,-0.9832,0,0,0,0,0,-1.0076,-1.0076,-1.0064,-1.0057,-1.0013,-0.9989,-0.9983,-0.9953,-0.9943,-0.9941,-0.9915,-0.9893,-0.9844,-0.9842,-0.9835,-0.9836,-0.9788,-0.9788,-0.9789,-0.9824,-0.9829,-0.9832,0,0,0,0,0,0,-1.0115,-1.0071,-1.0057,-1.0045,-1.0021,-0.9982,-0.9978,-0.9959,-0.9936,-0.9934,-0.9897,-0.9888,-0.9872,-0.9852,-0.9851,-0.9828,-0.9813,-0.9812,-0.9842,-0.9846,-0.9849,-0.9854,-0.9821,0,0,0,0,0,-1.0123,-1.0109,-1.007,-1.0063,-1.0052,-1.0017,-1.0006,-0.9985,-0.9958,-0.9947,-0.9919,-0.9893,-0.9871,-0.9857,-0.9835,-0.9822,-0.9812,-0.9819,-0.9823,-0.9826,-0.9825,-0.9815,-0.9818,-0.9792,-0.9792,-0.9792,0,0,-1.0138,-1.0112,-1.0105,-1.0071,-1.005,-1.0034,-1.0009,-0.9994,-0.9981,-0.9944,-0.9925,-0.9903,-0.9871,-0.9855,-0.9846,-0.9838,-0.983,-0.9827,-0.9829,-0.9827,-0.9816,-0.9819,-0.9821,-0.9793,-0.9793,-0.9793,0,0,-1.0158,-1.0138,-1.0129,-1.0109,-1.0078,-1.0054,-1.0052,-1.0015,-1.0,-0.998,-0.9952,-0.9935,-0.9899,-0.9876,-0.986,-0.987,-0.9849,-0.9863,-0.988,-0.9871,-0.9873,-0.9874,-0.9876,-0.9878,-0.9863,-0.9863,-0.9864,0,-1.0181,-1.0157,-1.0127,-1.0113,-1.0098,-1.0066,-1.0056,-1.0037,-0.9999,-0.9989,-0.998,-0.9933,-0.9908,-0.9886,-0.9888,-0.9877,-0.9872,-0.9868,-0.9875,-0.9877,-0.9877,-0.9879,-0.988,-0.9865,-0.9865,-0.9865,-0.9865,0,-1.0186,-1.017,-1.0166,-1.0132,-1.0117,-1.0105,-1.0072,-1.0059,-1.0039,-1.0016,-0.9995,-0.9965,-0.9935,-0.9928,-0.9909,-0.9902,-0.9898,-0.9883,-0.9866,-0.9882,-0.9883,-0.9884,-0.9868,-0.9867,-0.9867,-0.9866,0,0,-1.0229,-1.0178,-1.0178,-1.0161,-1.0124,-1.011,-1.0095,-1.0068,-1.0057,-1.0032,-1.0018,-0.9987,-0.9972,-0.9954,-0.9931,-0.9923,-0.9931,-0.9908,-0.9907,-0.9913,-0.992,-0.9931,-0.9933,-0.9917,-0.9917,-0.9917,-0.9922,0,-1.0242,-1.0217,-1.0189,-1.0172,-1.0156,-1.0124,-1.0111,-1.0086,-1.0064,-1.0045,-1.0019,-0.9998,-0.9981,-0.9969,-0.996,-0.9932,-0.9932,-0.9931,-0.9901,-0.9901,-0.991,-0.9933,-0.9945,-0.9952,-0.9923,-0.9923,-0.9923,0,-1.0255,-1.0232,-1.0215,-1.0178,-1.0169,-1.0159,-1.013,-1.0114,-1.0083,-1.0067,-1.0046,-1.0022,-1.0003,-0.9989,-0.9961,-0.9962,-0.9948,-0.9932,-0.9931,-0.9927,-0.9912,-0.9928,-0.9954,-0.9955,-0.9923,-0.9923,-0.9923,0,-1.0287,-1.0252,-1.0236,-1.0223,-1.018,-1.0173,-1.0154,-1.0124,-1.0108,-1.0083,-1.0072,-1.0044,-1.0029,-1.0006,-0.9974,-0.9968,-0.9949,-0.9933,-0.9934,-0.9934,-0.9931,-0.9931,-0.9953,-0.9923,-0.9923,-0.9923,-0.9923,0,-1.0304,-1.0294,-1.025,-1.0241,-1.0228,-1.0195,-1.0182,-1.016,-1.0133,-1.0117,-1.0087,-1.0073,-1.0032,-1.0011,-0.9986,-0.9965,-0.9959,-0.9944,-0.9937,-0.9946,-0.9948,-0.9936,-0.9934,-0.9923,-0.9923,-0.9923,-0.9923,0,-1.0338,-1.0308,-1.0289,-1.025,-1.024,-1.0232,-1.0197,-1.0185,-1.0161,-1.0141,-1.0134,-1.0095,-1.007,-1.0036,-0.9999,-0.9982,-0.9964,-0.9954,-0.9975,-0.9971,-0.9973,-0.9973,-0.9987,-0.9987,-0.9958,-0.9959,-0.9959,0,-1.0351,-1.0342,-1.0302,-1.029,-1.0273,-1.0254,-1.0238,-1.0204,-1.0189,-1.0153,-1.0145,-1.0118,-1.0094,-1.0054,-1.0021,-0.9992,-0.998,-0.9987,-0.9976,-0.9985,-0.9979,-0.998,-0.9978,-0.999,-0.9991,-0.9991,-0.9991,0,-1.0376,-1.0362,-1.0341,-1.0315,-1.0298,-1.0275,-1.0251,-1.0243,-1.0203,-1.0187,-1.0161,-1.0143,-1.0106,-1.0078,-1.0044,-1.0022,-1.0,-0.9995,-0.9994,-1.0003,-1.0015,-1.0007,-0.9982,-0.9995,-0.9995,-0.9994,-0.9994,-0.9994,-1.0399,-1.0389,-1.036,-1.0337,-1.0316,-1.0294,-1.0281,-1.0255,-1.0234,-1.0202,-1.0183,-1.0157,-1.0125,-1.0078,-1.0057,-1.0035,-1.0026,-1.0024,-1.0023,-1.0023,-1.0026,-1.0019,-1.0029,-1.0029,-1.0028,-1.0028,-1.0028,0,-1.0422,-1.0401,-1.0381,-1.0349,-1.0331,-1.0312,-1.0284,-1.027,-1.0249,-1.0221,-1.0198,-1.0167,-1.014,-1.0105,-1.0074,-1.0063,-1.0052,-1.0056,-1.0056,-1.0051,-1.0036,-1.004,-1.0066,-1.0066,-1.0066,-1.0066,-1.0066,-1.0066,-1.0431,-1.0414,-1.0396,-1.0367,-1.0346,-1.0322,-1.0308,-1.0286,-1.0264,-1.0232,-1.0209,-1.0187,-1.0156,-1.0123,-1.0096,-1.0086,-1.0075,-1.0083,-1.007,-1.0056,-1.0052,-1.0049,-1.0053,-1.0081,-1.0081,-1.0086,-1.0087,-1.0087]}]]